[[{"header":{"parameterUnit":"m.s-1","parameterCategory":1,"la1":30.2991,"la2":30.254,"lo1":-89.0895,"lo2":-89.0444,"dy":0.0017,"dx":0.0017,"nx":28,"ny":28,"refTime":"2025-05-26T03:00:00:Z","depth":0,"parameterNumber":2,"parameterNumberName":"U-component_of_WINDS"},"data":[0,0,0,0,0,0,0,0,0,0,0,0,0,0,0,0,0,0,0,0,0,0,0,0,0,0,0,0,0,0,0,0,0,0,0,0,0,0,0,0,0,0,0,0,0,0,0,0,0,0,0,0,0,0,0,0,0,0,-1.0606,-1.0604,0,-1.0481,-1.048,-1.0478,-1.0397,-1.0397,-1.0396,-1.0396,-1.0265,-1.0262,-1.0259,0,0,0,0,0,0,0,0,0,0,0,0,0,-1.0772,-1.0769,-1.0606,-1.0604,-1.0603,-1.0481,-1.048,-1.0478,-1.0397,-1.0397,-1.0396,-1.0395,-1.0266,-1.0262,-1.0259,0,0,0,0,0,0,0,0,0,0,0,0,0,-1.0679,-1.0768,-1.0606,-1.0548,-1.0541,-1.0482,-1.048,-1.0477,-1.0397,-1.0397,-1.0396,-1.0395,-1.0267,-1.0263,-1.0258,-1.0245,0,0,-1.0244,-1.0242,0,0,0,0,0,0,0,0,-1.0684,-1.0673,-1.0558,-1.0552,-1.0544,-1.0454,-1.049,-1.04,-1.0397,-1.0452,-1.0396,-1.0395,-1.0328,-1.0319,-1.0297,-1.0239,-1.0234,-1.0244,-1.0241,-1.0239,-1.0238,0,0,0,0,0,0,0,-1.0691,-1.0678,-1.0556,-1.0556,-1.0548,-1.0527,-1.0513,-1.0473,-1.0396,-1.0447,-1.0441,-1.0427,-1.0324,-1.0301,-1.0293,-1.0232,-1.0244,-1.024,-1.0237,-1.0235,-1.0158,-1.0159,0,0,0,0,0,0,-1.0707,-1.0683,-1.056,-1.0553,-1.0614,-1.0525,-1.0509,-1.0484,-1.0396,-1.0382,-1.0428,-1.0424,-1.0309,-1.0298,-1.0288,-1.0267,-1.0239,-1.0235,-1.0232,-1.0157,-1.0158,-1.0159,0,0,0,0,0,0,-1.071,-1.0696,-1.0565,-1.0616,-1.0598,-1.0523,-1.0495,-1.0482,-1.0459,-1.0382,-1.0367,-1.0419,-1.0308,-1.0294,-1.0257,-1.0262,-1.0233,-1.0229,-1.0157,-1.0158,-1.0159,-1.0227,0,0,0,0,0,0,-1.0716,-1.0698,-1.0693,-1.0617,-1.0596,-1.0537,-1.0495,-1.048,-1.0451,-1.0445,-1.0369,-1.0356,-1.0307,-1.0264,-1.0253,-1.0255,-1.0225,-1.0156,-1.0157,-1.0158,-1.0224,-1.023,-1.0235,0,0,0,0,0,-1.0722,-1.0717,-1.0693,-1.0679,-1.0588,-1.0538,-1.0525,-1.047,-1.0452,-1.0446,-1.0397,-1.0358,-1.0264,-1.0261,-1.0247,-1.0249,-1.0155,-1.0157,-1.0158,-1.0221,-1.0229,-1.0235,0,0,0,0,0,0,-1.0794,-1.0705,-1.0679,-1.0649,-1.0602,-1.0524,-1.0515,-1.0479,-1.0435,-1.0431,-1.0363,-1.0346,-1.0316,-1.0278,-1.0277,-1.0232,-1.0205,-1.0204,-1.0257,-1.0264,-1.027,-1.0279,-1.0222,0,0,0,0,0,-1.0807,-1.0774,-1.0698,-1.0679,-1.0657,-1.059,-1.0566,-1.0528,-1.0475,-1.0455,-1.0403,-1.0353,-1.0311,-1.0286,-1.0244,-1.0218,-1.02,-1.0212,-1.0218,-1.0223,-1.0223,-1.0207,-1.0211,-1.0164,-1.0164,-1.0164,0,0,-1.0832,-1.078,-1.0763,-1.0692,-1.0651,-1.0618,-1.0574,-1.0541,-1.0516,-1.0449,-1.0411,-1.0371,-1.0311,-1.028,-1.0263,-1.0247,-1.0232,-1.0225,-1.023,-1.0226,-1.0209,-1.0213,-1.0217,-1.0165,-1.0165,-1.0164,0,0,-1.0862,-1.0819,-1.0799,-1.0759,-1.0698,-1.0653,-1.0649,-1.0577,-1.0548,-1.0509,-1.0459,-1.0427,-1.0358,-1.0317,-1.0287,-1.0303,-1.0266,-1.0291,-1.0321,-1.0306,-1.031,-1.0313,-1.0318,-1.0321,-1.0291,-1.0291,-1.0292,0,-1.0901,-1.085,-1.0792,-1.0763,-1.0733,-1.0673,-1.0651,-1.0615,-1.0543,-1.0524,-1.0507,-1.042,-1.0375,-1.0333,-1.0337,-1.0315,-1.0307,-1.0299,-1.0314,-1.0317,-1.0318,-1.0323,-1.0325,-1.0295,-1.0294,-1.0294,-1.0294,0,-1.0901,-1.0867,-1.0857,-1.0791,-1.076,-1.0735,-1.0672,-1.0648,-1.0613,-1.057,-1.0531,-1.0476,-1.0421,-1.0409,-1.0373,-1.0362,-1.0354,-1.0327,-1.0299,-1.0328,-1.033,-1.0331,-1.03,-1.0299,-1.0298,-1.0297,0,0,-1.0971,-1.0874,-1.0872,-1.0841,-1.0769,-1.0741,-1.0713,-1.0661,-1.0642,-1.0594,-1.0569,-1.0512,-1.0487,-1.0453,-1.0413,-1.04,-1.0416,-1.0374,-1.0371,-1.0383,-1.04,-1.0421,-1.0424,-1.0391,-1.0391,-1.0391,-1.0405,0,-1.099,-1.0937,-1.0885,-1.085,-1.0818,-1.0761,-1.0736,-1.069,-1.065,-1.0616,-1.0571,-1.0532,-1.0502,-1.0481,-1.0466,-1.0417,-1.0418,-1.0416,-1.0366,-1.0365,-1.0382,-1.0425,-1.0446,-1.0462,-1.0406,-1.0406,-1.0406,0,-1.1004,-1.096,-1.0923,-1.0856,-1.084,-1.0819,-1.0768,-1.0736,-1.0682,-1.0654,-1.0617,-1.0574,-1.0541,-1.0518,-1.0471,-1.0471,-1.0447,-1.042,-1.042,-1.0412,-1.0387,-1.0418,-1.0465,-1.0468,-1.0407,-1.0407,-1.0407,0,-1.1059,-1.0991,-1.096,-1.0935,-1.0855,-1.0842,-1.0808,-1.0753,-1.0726,-1.0681,-1.0662,-1.0614,-1.0587,-1.055,-1.0495,-1.0483,-1.0455,-1.0426,-1.0429,-1.0431,-1.0425,-1.0426,-1.0469,-1.0412,-1.0412,-1.0411,-1.0411,0,-1.1084,-1.1064,-1.0983,-1.0964,-1.094,-1.088,-1.0857,-1.0817,-1.0769,-1.0741,-1.0689,-1.0664,-1.0593,-1.0559,-1.0516,-1.0484,-1.0472,-1.0448,-1.0437,-1.0452,-1.0456,-1.0435,-1.0433,-1.0412,-1.0412,-1.0412,-1.0412,0,-1.1141,-1.1087,-1.1049,-1.0977,-1.0959,-1.0944,-1.0882,-1.0861,-1.0818,-1.0783,-1.0772,-1.0704,-1.0662,-1.0604,-1.0543,-1.0514,-1.0488,-1.047,-1.0506,-1.0499,-1.0506,-1.0506,-1.0537,-1.0537,-1.0481,-1.0482,-1.0482,0,-1.1161,-1.1144,-1.1071,-1.1049,-1.1017,-1.0982,-1.0954,-1.0894,-1.0867,-1.0805,-1.0791,-1.0745,-1.0705,-1.0639,-1.0584,-1.0538,-1.0518,-1.0532,-1.0511,-1.0527,-1.0518,-1.0519,-1.0517,-1.0537,-1.0538,-1.0539,-1.054,0,-1.1202,-1.1176,-1.1138,-1.1091,-1.1059,-1.1019,-1.0976,-1.0961,-1.0892,-1.0864,-1.0821,-1.079,-1.0729,-1.0683,-1.0629,-1.0593,-1.0555,-1.0547,-1.0545,-1.0561,-1.0582,-1.057,-1.052,-1.0546,-1.0546,-1.0545,-1.0545,-1.0545,-1.124,-1.1222,-1.1168,-1.1128,-1.109,-1.1051,-1.1028,-1.0983,-1.0946,-1.0892,-1.086,-1.0818,-1.0764,-1.0688,-1.0654,-1.062,-1.0604,-1.0602,-1.0601,-1.0601,-1.0607,-1.0589,-1.061,-1.0609,-1.0609,-1.0609,-1.0609,0,-1.1277,-1.124,-1.1204,-1.1146,-1.1115,-1.1083,-1.1034,-1.1009,-1.0973,-1.0927,-1.0889,-1.0839,-1.0795,-1.0738,-1.0689,-1.0673,-1.0654,-1.0662,-1.0662,-1.0655,-1.0623,-1.0629,-1.0678,-1.0678,-1.0678,-1.0678,-1.0678,-1.0678,-1.1293,-1.1262,-1.123,-1.1179,-1.1141,-1.11,-1.1075,-1.104,-1.1002,-1.095,-1.0913,-1.0876,-1.0825,-1.0773,-1.0731,-1.0715,-1.07,-1.0713,-1.0692,-1.0663,-1.0657,-1.0651,-1.0656,-1.0711,-1.0711,-1.0726,-1.0727,-1.0727]},{"header":{"parameterUnit":"m.s-1","parameterCategory":1,"la1":30.2991,"la2":30.254,"lo1":-89.0895,"lo2":-89.0444,"dy":0.0017,"dx":0.0017,"nx":28,"ny":28,"refTime":"2025-05-26T03:00:00:Z","depth":0,"parameterNumber":3,"parameterNumberName":"V-component_of_WINDS"},"data":[0,0,0,0,0,0,0,0,0,0,0,0,0,0,0,0,0,0,0,0,0,0,0,0,0,0,0,0,0,0,0,0,0,0,0,0,0,0,0,0,0,0,0,0,0,0,0,0,0,0,0,0,0,0,0,0,0,0,3.7269,3.7269,0,3.7243,3.7242,3.7242,3.7257,3.7257,3.7258,3.7259,3.7225,3.7224,3.7222,0,0,0,0,0,0,0,0,0,0,0,0,0,3.7328,3.7327,3.7269,3.7269,3.7269,3.7243,3.7242,3.7242,3.7256,3.7257,3.7258,3.7259,3.7226,3.7224,3.7222,0,0,0,0,0,0,0,0,0,0,0,0,0,3.7302,3.7326,3.7269,3.7273,3.7273,3.7243,3.7242,3.7242,3.7256,3.7257,3.7259,3.726,3.7226,3.7224,3.7222,3.7184,0,0,3.7214,3.7213,0,0,0,0,0,0,0,0,3.7303,3.73,3.7273,3.7273,3.7273,3.7254,3.7251,3.7222,3.7256,3.7262,3.7259,3.726,3.7233,3.7231,3.7223,3.7183,3.7181,3.7214,3.7213,3.7212,3.7211,0,0,0,0,0,0,0,3.7305,3.7301,3.7258,3.7272,3.7272,3.7274,3.7272,3.7245,3.7242,3.7262,3.7263,3.726,3.7234,3.7225,3.7222,3.7181,3.7214,3.7212,3.7211,3.721,3.7109,3.7108,0,0,0,0,0,0,3.7307,3.7302,3.7259,3.7258,3.7291,3.7272,3.727,3.7259,3.7242,3.7241,3.7259,3.7261,3.7229,3.7225,3.7221,3.7177,3.7212,3.7209,3.7208,3.711,3.7109,3.7107,0,0,0,0,0,0,3.7309,3.7303,3.726,3.728,3.7275,3.727,3.7258,3.7258,3.7249,3.724,3.7239,3.7251,3.7229,3.7224,3.7194,3.7176,3.7208,3.7206,3.7112,3.711,3.7108,3.7087,0,0,0,0,0,0,3.731,3.7304,3.7291,3.728,3.7274,3.7235,3.7257,3.7256,3.7246,3.7248,3.7232,3.7231,3.723,3.7197,3.7192,3.7173,3.7204,3.7113,3.7111,3.7109,3.7089,3.7085,3.7081,0,0,0,0,0,3.7312,3.7284,3.729,3.7285,3.7258,3.7234,3.723,3.7232,3.7244,3.723,3.7225,3.7231,3.7179,3.7194,3.7188,3.7168,3.7114,3.7112,3.7109,3.7091,3.7086,3.7081,0,0,0,0,0,0,3.729,3.7283,3.7289,3.7257,3.7246,3.7237,3.7219,3.7225,3.7209,3.7211,3.7212,3.7208,3.7177,3.7169,3.7186,3.7131,3.7148,3.7144,3.7137,3.7132,3.7128,3.713,3.7202,0,0,0,0,0,3.7282,3.7265,3.7259,3.7231,3.7226,3.7223,3.7213,3.7215,3.7203,3.7198,3.719,3.7177,3.7157,3.7144,3.7126,3.7089,3.7085,3.7072,3.7068,3.7064,3.706,3.7041,3.7035,3.7098,3.7098,3.7098,0,0,3.7264,3.7258,3.7247,3.7227,3.7219,3.72,3.7219,3.7198,3.7184,3.7194,3.7166,3.7159,3.7144,3.7111,3.7095,3.7104,3.7042,3.7061,3.7058,3.7056,3.7037,3.7031,3.7026,3.7097,3.7097,3.7097,0,0,3.7222,3.7216,3.7192,3.7185,3.7174,3.7172,3.7167,3.7157,3.7153,3.7125,3.7133,3.7115,3.7082,3.7071,3.7061,3.7017,3.7022,3.7011,3.6988,3.6968,3.6963,3.6959,3.6943,3.6937,3.7007,3.7007,3.7007,0,3.72,3.7174,3.7179,3.7158,3.7149,3.716,3.7136,3.7127,3.711,3.7102,3.7112,3.7072,3.7062,3.7026,3.7016,3.7008,3.7,3.7012,3.6964,3.696,3.6955,3.694,3.6934,3.7005,3.7005,3.7006,3.7006,0,3.7148,3.713,3.7112,3.7098,3.7086,3.7063,3.7064,3.7051,3.7055,3.7052,3.7024,3.7013,3.6993,3.6985,3.6987,3.695,3.6955,3.6965,3.6982,3.6948,3.6934,3.6928,3.7003,3.7004,3.7004,3.7005,0,0,3.7089,3.708,3.7073,3.7067,3.7056,3.7041,3.7019,3.7002,3.6991,3.6979,3.6959,3.6932,3.6941,3.693,3.6931,3.6914,3.688,3.6926,3.6926,3.6918,3.6838,3.6831,3.6824,3.6884,3.6883,3.6882,3.6839,0,3.7046,3.701,3.7014,3.6979,3.6962,3.6973,3.6954,3.6944,3.6941,3.6925,3.6921,3.6902,3.6916,3.6909,3.6893,3.6888,3.6864,3.6891,3.6865,3.6864,3.6868,3.6816,3.6808,3.6768,3.6834,3.6833,3.6832,0,3.6991,3.6979,3.6943,3.6936,3.6929,3.6912,3.6897,3.6882,3.6871,3.687,3.6859,3.6863,3.684,3.6859,3.6826,3.6844,3.6834,3.6829,3.6828,3.6825,3.6845,3.6811,3.6755,3.6749,3.6823,3.6824,3.6825,0,3.6952,3.6927,3.6902,3.6896,3.6888,3.6875,3.6871,3.6861,3.6851,3.6838,3.6831,3.6814,3.6804,3.6791,3.679,3.6804,3.6756,3.6775,3.6754,3.6754,3.6743,3.6743,3.6683,3.6737,3.6737,3.6737,3.6737,0,3.6903,3.688,3.6885,3.6869,3.6844,3.6849,3.6823,3.6819,3.6811,3.6794,3.6803,3.6786,3.6787,3.677,3.6769,3.6742,3.6737,3.6735,3.6735,3.6734,3.6734,3.6727,3.6729,3.6736,3.6736,3.6736,3.6736,0,3.6854,3.6857,3.683,3.6825,3.6823,3.6805,3.68,3.6784,3.6783,3.6762,3.6757,3.6754,3.6735,3.6734,3.671,3.671,3.6677,3.668,3.6681,3.6681,3.6661,3.6663,3.6593,3.6584,3.6644,3.6643,3.6643,0,3.6822,3.6806,3.68,3.679,3.6786,3.677,3.676,3.6764,3.6754,3.6741,3.6727,3.671,3.6695,3.6663,3.6658,3.6641,3.6643,3.662,3.664,3.664,3.6642,3.6643,3.6642,3.6616,3.6615,3.6615,3.6614,0,3.6766,3.6769,3.6756,3.6744,3.6733,3.6722,3.6713,3.6704,3.6707,3.6695,3.6677,3.6666,3.6644,3.6625,3.6608,3.6602,3.6608,3.6608,3.6602,3.6601,3.6602,3.6601,3.667,3.6609,3.661,3.661,3.661,3.6611,3.6725,3.6711,3.6705,3.669,3.6684,3.6676,3.6662,3.666,3.6646,3.663,3.6633,3.6612,3.6602,3.6581,3.6573,3.6556,3.6563,3.6555,3.6553,3.655,3.6548,3.6606,3.6553,3.6553,3.6553,3.6553,3.6553,0,3.6669,3.6666,3.6653,3.6641,3.663,3.6639,3.663,3.6619,3.6602,3.6593,3.658,3.6559,3.6541,3.6536,3.6519,3.6506,3.6508,3.6501,3.6502,3.65,3.6542,3.6549,3.65,3.65,3.65,3.65,3.65,3.65,3.6638,3.6615,3.6617,3.6591,3.6588,3.657,3.6564,3.6556,3.6549,3.6526,3.6513,3.651,3.6503,3.6485,3.647,3.6468,3.6461,3.6453,3.6453,3.6492,3.6497,3.6502,3.6509,3.6451,3.6451,3.6412,3.6412,3.6411]}]]